Track STARLINK 1038 now! 10-day predictions STARLINK 1038 is classified as:
1 44743U 19074AG 22142.84817194 .00001010 00000-0 86709-4 0 9992 2 44743 53.0572 332.3946 0001469 75.2518 284.8633 15.06393430139252